Stations météo

Publicité
Bordeaux/Merignac, France (7510): Température de l'air & dewpoint: 03.07.2020 15:00:00 - 09.07.2020 15:00:00 (CEST)Bordeaux/Merignac, France (7510): Température de l'air 5cm: 03.07.2020 15:00:00 - 09.07.2020 15:00:00 (CEST)Bordeaux/Merignac, France (7510): Température de l'air -20cm & Température de l'air -100cm: 03.07.2020 15:00:00 - 09.07.2020 15:00:00 (CEST)Bordeaux/Merignac, France (7510): Vitesse du vent & gusts: 03.07.2020 15:00:00 - 09.07.2020 15:00:00 (CEST)Bordeaux/Merignac, France (7510): Direction du vent: 03.07.2020 15:00:00 - 09.07.2020 15:00:00 (CEST)Bordeaux/Merignac, France (7510): reduced air pressure: 03.07.2020 15:00:00 - 09.07.2020 15:00:00 (CEST)Bordeaux/Merignac, France (7510): visibility: 03.07.2020 15:00:00 - 09.07.2020 15:00:00 (CEST)Bordeaux/Merignac, France (7510): Ensoleillement: 03.07.2020 15:00:00 - 09.07.2020 15:00:00 (CEST)Bordeaux/Merignac, France (7510): Quantités de précipitations: 03.07.2020 15:00:00 - 09.07.2020 15:00:00 (CEST)
Date & Time tt [°C] td [°C] tt 5cm [°C] tt -20cm [°C] tt -100cm [°C] ff [km/h] ff [knt] fx [km/h] fx [knt] dd ppp [hPa] vv [km] sd [min] rr [mm]
09.07.2020 15:00:00 31,7 12,5 39,5 25,3 21,5 9 5 32 17 NW 1017,1 49 60 0,0
09.07.2020 14:00:00 31,6 13,4 39,7 24,8 21,5 9 5 17 9 W 1017,5 46 60 0,0
09.07.2020 13:00:00 30,9 13,7 37,6 24,4 21,4 8 4 16 9 NW 1017,6 40 60 0,0
09.07.2020 12:00:00 29,1 16,0 34,8 24,1 21,4 9 5 16 8 W 1017,7 31 60 0,0
09.07.2020 11:00:00 27,2 14,2 31,5 24,0 21,4 8 4 16 9 NW 1017,8 24 60 0,0
09.07.2020 10:00:00 25,2 15,5 27,6 23,9 21,4 6 4 12 6 SW 1017,9 22 60 0,0
09.07.2020 09:00:00 23,4 14,7 20,9 24,0 21,4 4 2 6 4 NNE 1017,5 37 60 0,0
09.07.2020 08:00:00 19,8 15,6 15,7 24,0 21,4 0 0 8 4 N 1017,3 20 49 0,0
09.07.2020 07:00:00 17,3 16,0 12,5 24,4 21,4 4 2 6 3 N 1016,8 2,7 0 0,0
09.07.2020 06:00:00 17,6 16,3 13,3 24,5 21,4 4 2 8 5 N 1016,6 0,8 0 0,0
09.07.2020 05:00:00 17,9 16,4 13,4 24,8 21,4 4 2 9 5 N 1016,7 0,3 0 0,0
09.07.2020 04:00:00 18,1 15,9 14,0 25,0 21,4 3 1 9 5 WNW 1017,2 8 0 0,0
09.07.2020 03:00:00 18,6 15,5 14,3 25,2 21,3 4 2 11 6 W 1017,5 16 0 0,0
09.07.2020 02:00:00 19,7 15,3 16,8 25,5 21,3 8 5 11 6 N 1017,3 31 0 0,0
09.07.2020 01:00:00 20,5 15,1 16,9 25,7 21,3 4 2 11 6 NNW 1017,8 39 0 0,0
09.07.2020 00:00:00 21,8 14,9 19,8 26,0 21,3 5 3 19 11 NW 1017,7 57 0 0,0
08.07.2020 23:00:00 23,2 14,7 21,7 26,2 21,3 12 7 17 9 N 1017,2 59 0 0,0
08.07.2020 22:00:00 25,5 12,7 23,6 26,4 21,3 11 6 18 10 N 1016,5 60 14 0,0
08.07.2020 21:00:00 28,0 11,9 27,5 26,5 21,3 14 8 23 13 N 1016,2 42 60 0,0
08.07.2020 20:00:00 30,0 9,0 33,0 26,5 21,3 17 9 26 14 NNE 1015,4 48 60 0,0
08.07.2020 19:00:00 30,5 9,4 34,9 26,3 21,3 16 9 30 16 NNE 1015,8 37 60 0,0
08.07.2020 18:00:00 30,4 7,6 36,7 26,0 21,2 16 9 30 16 NNE 1016,5 39 60 0,0
08.07.2020 17:00:00 30,5 8,2 36,7 25,6 21,3 17 9 33 18 NNE 1017,0 20 60 0,0
08.07.2020 16:00:00 30,1 9,0 37,6 25,0 21,3 13 7 29 16 NNE 1017,7 20 60 0,0
08.07.2020 15:00:00 29,2 8,3 36,4 24,5 21,3 9 5 34 19 ESE 1018,1 26 60 0,0
08.07.2020 14:00:00 28,8 9,5 35,5 24,0 21,3 10 5 29 15 NNE 1018,5 31 60 0,0
08.07.2020 13:00:00 27,0 9,4 34,2 23,5 21,3 14 8 27 15 NE 1018,9 47 60 0,0
08.07.2020 12:00:00 26,9 8,3 32,7 23,2 21,3 10 6 22 12 ENE 1019,0 36 60 0,0
08.07.2020 11:00:00 25,0 10,1 28,0 23,1 21,2 6 3 14 8 E 1019,0 25 60 0,0
08.07.2020 10:00:00 22,4 9,5 24,4 23,1 21,3 11 6 16 9 NE 1019,1 41 60 0,0
08.07.2020 09:00:00 20,4 10,5 17,9 23,1 21,3 10 6 16 9 ENE 1019,1 34 60 0,0
08.07.2020 08:00:00 18,3 11,1 13,0 23,3 21,2 8 4 10 5 NNE 1018,7 20 60 0,0
08.07.2020 07:00:00 14,2 11,9 8,4 23,5 21,2 5 3 8 4 NNE 1018,6 10 10 0,0
08.07.2020 06:00:00 13,4 11,3 9,2 23,8 21,2 3 1 6 3 NNW 1018,5 1,6 0 0,0
08.07.2020 05:00:00 14,6 12,1 11,4 24,0 21,2 3 1 10 6 NNW 1018,6 1,5 0 0,0
08.07.2020 04:00:00 15,1 12,8 12,3 24,2 21,1 6 4 9 5 N 1018,8 5 0 0,0
08.07.2020 03:00:00 15,5 13,0 12,7 24,5 21,2 5 3 8 4 N 1019,2 14 0 0,0
08.07.2020 02:00:00 16,3 12,8 14,3 24,8 21,2 4 2 8 4 NNW 1019,7 24 0 0,0
08.07.2020 01:00:00 16,9 12,4 15,0 25,0 21,2 3 2 9 5 NNW 1019,9 39 0 0,0
08.07.2020 00:00:00 17,6 12,1 15,9 25,2 21,2 5 3 9 5 NW 1020,1 52 0 0,0
07.07.2020 23:00:00 18,6 12,1 17,1 25,5 21,1 6 4 22 12 NNW 1019,9 53 0 0,0
07.07.2020 22:00:00 20,2 12,7 19,1 25,7 21,1 16 9 27 15 NNW 1019,5 55 11 0,0
07.07.2020 21:00:00 22,7 12,3 22,5 25,8 21,1 18 10 28 15 N 1019,2 21 25 0,0
07.07.2020 20:00:00 24,7 9,0 25,5 25,8 21,2 15 8 24 13 N 1019,0 35 19 0,0
07.07.2020 19:00:00 25,2 8,2 29,1 25,7 21,1 15 8 27 14 N 1019,0 30 57 0,0
07.07.2020 18:00:00 26,1 9,0 31,8 25,4 21,1 16 9 26 14 NNE 1019,4 43 60 0,0
07.07.2020 17:00:00 26,2 8,7 34,8 25,1 21,1 13 7 25 14 NNE 1019,9 34 60 0,0
07.07.2020 16:00:00 25,1 9,4 28,5 24,6 21,1 13 7 26 14 NNE 1020,5 36 41 0,0
07.07.2020 15:00:00 25,4 9,2 31,8 24,1 21,1 16 9 27 14 NNE 1020,7 39 60 0,0
07.07.2020 14:00:00 24,3 9,1 31,9 23,6 21,1 13 7 29 16 NE 1021,3 20 60 0,0
07.07.2020 13:00:00 23,8 8,2 31,1 23,2 21,1 9 5 31 17 ENE 1021,7 38 60 0,0
07.07.2020 12:00:00 23,0 7,9 29,0 22,9 21,1 11 6 25 14 NNE 1022,0 38 60 0,0
07.07.2020 11:00:00 22,2 9,4 26,6 22,8 21,1 10 5 18 10 NE 1022,1 38 60 0,0
07.07.2020 10:00:00 20,3 9,8 21,5 22,7 21,1 10 5 17 9 NE 1022,2 20 60 0,0
07.07.2020 09:00:00 17,9 9,8 15,6 22,9 21,1 11 6 15 8 NE 1022,2 20 60 0,0
07.07.2020 08:00:00 15,9 10,6 13,2 23,0 21,0 8 5 11 6 NNE 1022,3 20 60 0,0
07.07.2020 07:00:00 13,6 11,3 10,8 23,2 21,0 8 4 11 6 NNE 1022,3 0,9 10 0,2
07.07.2020 06:00:00 13,4 11,8 11,6 23,4 21,0 6 3 10 5 NNE 1022,3 0,2 0 0,0
07.07.2020 05:00:00 13,7 12,4 12,1 23,7 21,0 8 4 10 5 NNE 1022,2 0,7 0 0,0
07.07.2020 04:00:00 13,9 12,8 10,7 23,9 21,0 5 3 8 4 N 1022,6 0,1 0 0,0
07.07.2020 03:00:00 14,4 12,8 12,3 24,2 21,0 4 2 6 4 N 1023,1 0,2 0 0,0
07.07.2020 02:00:00 15,1 13,1 11,7 24,5 21,0 3 2 6 4 WNW 1023,3 0,4 0 0,0
07.07.2020 01:00:00 15,2 12,7 12,3 24,8 21,0 4 2 10 6 W 1023,7 16 0 0,0
07.07.2020 00:00:00 15,7 12,4 13,7 25,0 20,9 7 4 16 9 NW 1024,0 20 0 0,0
06.07.2020 23:00:00 16,8 12,1 15,4 25,3 20,9 11 6 22 12 NNW 1024,0 36 0 0,0
06.07.2020 22:00:00 18,4 11,9 17,0 25,5 20,9 11 6 23 12 NNW 1023,5 22 14 0,0
06.07.2020 21:00:00 20,8 12,0 20,2 25,6 20,9 16 9 33 18 NW 1023,3 26 60 0,0
06.07.2020 20:00:00 22,7 11,4 26,3 25,6 20,9 16 9 27 15 NW 1023,0 21 60 0,0
06.07.2020 19:00:00 23,1 9,8 28,7 25,5 20,9 17 9 31 17 NW 1023,0 23 60 0,0
06.07.2020 18:00:00 23,8 11,1 30,4 25,3 20,9 21 11 37 20 N 1023,3 19 60 0,0
06.07.2020 17:00:00 24,0 9,6 31,7 24,9 20,9 17 9 26 14 N 1023,3 22 60 0,0
06.07.2020 16:00:00 24,4 10,7 32,2 24,5 20,9 15 8 31 17 NNW 1023,3 20 60 0,0
06.07.2020 15:00:00 23,8 11,1 29,7 24,1 20,9 16 9 34 18 NNW 1023,7 29 60 0,0
06.07.2020 14:00:00 22,4 11,5 30,1 23,7 20,9 18 10 32 17 N 1023,8 31 60 0,0
06.07.2020 13:00:00 21,9 13,0 25,6 23,4 20,8 18 10 33 18 N 1023,9 31 53 0,0
06.07.2020 12:00:00 20,4 12,9 23,4 23,3 20,8 - - 24 13 - 1024,0 26 40 0,0
06.07.2020 11:00:00 19,5 12,3 20,9 23,2 20,8 16 9 25 14 NNW 1024,1 23 46 0,0
06.07.2020 10:00:00 18,5 12,3 19,0 23,2 20,8 18 10 31 17 NNW 1023,8 20 46 0,0
06.07.2020 09:00:00 17,9 13,2 16,0 23,3 20,8 17 9 26 14 N 1023,7 20 40 0,0
06.07.2020 08:00:00 16,8 15,3 16,2 23,4 20,7 16 9 25 13 N 1023,3 38 0 0,0
06.07.2020 07:00:00 16,7 15,7 16,2 23,5 20,8 11 6 28 15 NNW 1022,7 45 0 0,4
06.07.2020 06:00:00 17,6 17,1 17,2 23,7 20,7 8 4 14 8 NW 1022,3 2,3 0 0,0
06.07.2020 05:00:00 17,7 17,1 17,0 23,9 20,8 7 4 13 7 WNW 1022,4 34 0 0,0
06.07.2020 04:00:00 17,7 17,1 17,2 24,0 20,7 8 4 16 8 WNW 1022,5 3,2 0 0,2
06.07.2020 03:00:00 17,9 17,3 17,4 24,2 20,7 9 5 17 9 NW 1022,8 1,3 0 0,4
06.07.2020 02:00:00 18,1 17,1 17,5 24,3 20,7 10 5 14 8 NW 1022,9 3,2 0 0,0
06.07.2020 01:00:00 18,4 16,6 17,9 24,6 20,7 11 6 25 14 NW 1023,0 13 0 0,0
06.07.2020 00:00:00 18,6 17,3 17,8 24,7 20,7 12 6 21 11 NW 1022,9 12 0 0,0
05.07.2020 23:00:00 19,6 17,7 19,2 24,9 20,7 16 8 25 13 NW 1022,8 10 0 0,0
05.07.2020 22:00:00 20,6 17,6 20,4 25,1 20,7 14 8 24 13 NW 1022,1 60 0 0,0
05.07.2020 21:00:00 22,3 17,9 22,1 25,2 20,7 15 8 21 11 NW 1021,7 36 60 0,0
05.07.2020 20:00:00 24,1 18,1 27,3 25,2 20,7 15 8 22 12 NW 1021,5 25 60 0,0
05.07.2020 19:00:00 25,0 18,0 30,3 25,0 20,7 15 8 25 13 WNW 1021,5 21 60 0,0
05.07.2020 18:00:00 25,4 17,8 31,8 24,7 20,7 17 9 30 16 WNW 1022,0 18 60 0,0
05.07.2020 17:00:00 26,9 18,2 30,5 24,4 20,7 21 11 29 16 WNW 1022,1 29 41 0,0
05.07.2020 16:00:00 26,9 17,4 30,8 23,9 20,7 16 9 26 14 NW 1022,1 48 37 0,0
05.07.2020 15:00:00 27,5 17,4 33,2 23,4 20,7 12 6 23 12 W 1021,9 36 60 0,0
05.07.2020 14:00:00 26,7 16,3 32,0 22,9 20,7 10 5 23 12 W 1022,4 41 60 0,0
05.07.2020 13:00:00 25,5 16,6 30,0 22,4 20,7 10 6 22 12 W 1023,0 30 57 0,0
05.07.2020 12:00:00 23,9 15,9 27,5 22,1 20,7 8 5 26 14 W 1023,3 29 55 0,0
05.07.2020 11:00:00 23,1 16,2 27,7 21,9 20,7 6 4 15 8 WSW 1023,5 42 60 0,0
05.07.2020 10:00:00 20,9 15,9 23,4 21,8 20,6 11 6 18 10 SW 1023,6 40 48 0,0
05.07.2020 09:00:00 19,2 16,1 17,7 21,9 20,6 4 2 8 4 SW 1023,7 28 44 0,0
05.07.2020 08:00:00 15,9 14,8 14,5 22,0 20,6 3 2 8 4 S 1023,5 14 0 0,0
05.07.2020 07:00:00 14,9 13,9 11,3 22,1 20,6 6 3 8 4 S 1023,6 13 0 0,0
05.07.2020 06:00:00 14,8 13,5 11,8 22,3 20,7 4 2 6 4 SW 1023,4 0,6 0 0,0
05.07.2020 05:00:00 15,6 14,3 13,1 22,5 20,6 4 2 5 3 SW 1023,5 16 0 0,0
05.07.2020 04:00:00 16,1 14,1 14,2 22,6 20,6 5 3 7 4 WSW 1023,8 26 0 0,0
05.07.2020 03:00:00 16,7 14,2 14,7 22,9 20,6 5 3 6 4 W 1024,3 21 0 0,0
05.07.2020 02:00:00 17,2 13,9 15,2 23,0 20,6 6 3 7 4 WSW 1024,6 17 0 0,0
05.07.2020 01:00:00 17,2 13,9 15,4 23,3 20,6 5 3 7 4 SW 1024,8 43 0 0,0
05.07.2020 00:00:00 17,7 14,0 15,8 23,5 20,6 5 3 8 5 WSW 1024,9 39 0 0,0
04.07.2020 23:00:00 18,5 14,0 16,5 23,7 20,6 6 4 10 6 W 1024,9 59 0 0,0
04.07.2020 22:00:00 19,4 13,8 18,2 23,8 20,6 8 4 16 9 WNW 1024,5 25 2 0,0
04.07.2020 21:00:00 20,8 12,7 20,7 23,9 20,6 12 6 21 11 WNW 1024,4 59 12 0,0
04.07.2020 20:00:00 22,7 12,3 24,5 23,9 20,6 14 8 26 14 WNW 1023,9 42 60 0,0
04.07.2020 19:00:00 23,8 12,4 26,0 23,8 20,6 14 8 24 13 W 1023,9 35 60 0,0
04.07.2020 18:00:00 23,7 12,3 27,2 23,4 20,6 16 9 26 14 W 1024,0 24 60 0,0
04.07.2020 17:00:00 24,3 12,6 31,0 23,0 20,6 17 9 31 17 W 1024,2 29 60 0,0
04.07.2020 16:00:00 24,2 12,8 28,3 22,5 20,7 19 10 33 18 WSW 1024,4 27 56 0,0
04.07.2020 15:00:00 24,2 12,5 30,0 22,0 20,7 16 9 26 14 W 1024,4 43 58 0,0
04.07.2020 14:00:00 23,3 12,0 29,7 21,5 20,7 15 8 29 15 WSW 1024,8 39 60 0,0
04.07.2020 13:00:00 23,0 12,9 24,2 21,1 20,7 16 9 30 16 WSW 1024,9 46 51 0,0
04.07.2020 12:00:00 20,9 13,1 22,5 20,8 20,7 11 6 28 15 WNW 1025,4 37 29 0,0
04.07.2020 11:00:00 20,3 12,0 21,5 20,7 20,7 10 6 19 10 W 1025,4 43 31 0,0
04.07.2020 10:00:00 19,0 12,3 19,7 20,6 20,7 10 5 19 10 W 1025,1 47 52 0,0
04.07.2020 09:00:00 17,1 13,2 13,9 20,6 20,7 8 4 11 6 SW 1024,9 18 60 0,0
04.07.2020 08:00:00 13,8 12,9 10,5 20,7 20,7 3 1 7 4 WSW 1024,7 19 48 0,0
04.07.2020 07:00:00 11,3 10,7 6,2 20,9 20,7 2 1 4 2 SSW 1024,5 11 6 0,0
04.07.2020 06:00:00 10,8 10,0 6,3 21,0 20,7 0 0 6 4 N 1024,6 11 0 0,0
04.07.2020 05:00:00 11,1 10,3 6,1 21,3 20,7 4 2 5 3 W 1024,8 0,4 0 0,0
04.07.2020 04:00:00 11,7 10,8 6,2 21,5 20,7 2 1 4 2 SW 1024,7 0,7 0 0,0
04.07.2020 03:00:00 12,2 10,9 6,7 21,7 20,7 0 0 5 3 N 1024,9 0,4 0 0,0
04.07.2020 02:00:00 12,9 11,5 7,6 21,9 20,7 6 3 7 4 SW 1025,2 10 0 0,0
04.07.2020 01:00:00 13,4 11,5 8,3 22,1 20,7 4 2 5 3 WSW 1025,4 14 0 0,0
04.07.2020 00:00:00 14,9 11,9 11,2 22,3 20,8 4 2 10 5 W 1025,2 22 0 0,0
03.07.2020 23:00:00 16,2 12,0 14,1 22,5 20,7 8 5 15 8 NW 1025,0 58 0 0,0
03.07.2020 22:00:00 17,7 11,7 16,1 22,6 20,8 10 6 19 10 NW 1024,2 60 14 0,0
03.07.2020 21:00:00 20,0 11,0 19,1 22,7 20,8 13 7 26 14 NW 1024,0 31 60 0,0
03.07.2020 20:00:00 21,7 10,5 21,8 22,7 20,8 17 9 27 15 NW 1023,6 21 46 0,0
03.07.2020 19:00:00 22,2 11,6 23,7 22,6 20,8 16 9 28 15 NNW 1023,5 51 38 0,0
03.07.2020 18:00:00 21,2 11,8 23,2 22,5 20,8 13 7 23 12 NW 1023,8 35 0 0,0
03.07.2020 17:00:00 21,4 11,7 23,6 22,4 20,8 13 7 18 10 WNW 1023,8 49 0 0,0
03.07.2020 16:00:00 20,9 11,8 22,7 22,2 20,8 11 6 21 12 NW 1023,9 42 1 0,0
03.07.2020 15:00:00 21,3 11,9 26,1 21,8 20,8 11 6 23 12 WNW 1024,0 45 20 0,0

tt = Température de l'air
td = dewpoint
tt 5cm = Température de l'air 5cm
tt -20cm = Température de l'air -20cm
tt -100cm = Température de l'air -100cm
ff = Vitesse du vent
fx = gusts
dd = Direction du vent
ppp = reduced air pressure
vv = visibility
sd = Ensoleillement
rr = Quantités de précipitations

stations d'obs. à proximité